Weather History for Concord, NH

Change the Weather History Date:

Saturday, January 28, 2012

  Actual Average Record
Temperature  
Mean Temperature 38 °F 21 °F  
Max Temperature 44 °F 31 °F 62 °F (1880)
Min Temperature 32 °F 11 °F -17 °F (1904)
Degree Days  
Heating Degree Days 27 44  
Month to date heating degree days 1101 1246  
Since 1 July heating degree days 3385 3992  
Cooling Degree Days 0 0  
Month to date cooling degree days 0 0  
Year to date cooling degree days 0 0  
Moisture  
Dew Point 25 °F    
Average Humidity 60    
Maximum Humidity 75    
Minimum Humidity 45    
Precipitation  
Precipitation T in 0.09 in 1.15 in (2009)
Month to date precipitation 2.83 2.44  
Year to date precipitation 2.83 2.44  
Snow  
Snow 0.00 in 0.50 in 16.00 in (1897)
Month to date snowfall 9.5 16.4  
Since 1 July snowfall 35.8 33.5  
Snow Depth 3.00 in    
Sea Level Pressure  
Sea Level Pressure 29.85 in    
Wind  
Wind Speed 8 mph (West)    
Max Wind Speed 24 mph    
Max Gust Speed 37 mph    
Visibility 10 miles    
Events Rain    
T = Trace of Precipitation, MM = Missing Value Source: NWS Daily Summary

Daily Weather History Graph

Daily Weather History Graph

Search for Another Location

Airport:

Trip Planner

Search our weather history database for the weather conditions in past years. The results will help you decide how hot, cold, wet, or windy it might be!

Date:

Astronomy

Jan. 28, 2012 Rise Set
Actual Time 7:06 AM EST 4:52 PM EST
Civil Twilight 6:35 AM EST 5:22 PM EST
Nautical Twilight 6:01 AM EST 5:57 PM EST
Astronomical Twilight 5:27 AM EST 6:30 PM EST
Moon 9:15 AM EST (1/28) 10:49 PM EST (1/28)
Length of Visible Light 10h 47m
Length of Day
9h 46m
Waxing Crescent, 27% of the Moon is Illuminated
Jan 28
Waxing Crescent
Jan 30
First Quarter
Feb 7
Full
Feb 14
Last Quarter
Feb 21
New

Hourly Weather History & Observations

Time (EST) Temp. Windchill Dew Point Humidity Pressure Visibility Wind Dir Wind Speed Gust Speed Precip Events Conditions
12:51 AM 37.0 °F 28.9 °F 28.0 °F 70% 29.63 in 10.0 mi WNW 12.7 mph 23.0 mph N/A   Overcast
1:51 AM 37.0 °F 28.1 °F 28.0 °F 70% 29.70 in 10.0 mi West 15.0 mph 24.2 mph N/A   Overcast
2:51 AM 37.0 °F 26.2 °F 27.0 °F 67% 29.73 in 10.0 mi NW 21.9 mph 36.8 mph N/A   Overcast
3:51 AM 37.0 °F 27.0 °F 26.1 °F 65% 29.78 in 10.0 mi NW 18.4 mph 33.4 mph N/A   Overcast
4:51 AM 37.0 °F 28.1 °F 25.0 °F 62% 29.83 in 10.0 mi WNW 15.0 mph 23.0 mph N/A   Overcast
5:51 AM 36.0 °F 27.5 °F 24.1 °F 62% 29.86 in 10.0 mi WNW 12.7 mph 21.9 mph N/A   Mostly Cloudy
6:51 AM 35.1 °F 31.0 °F 23.0 °F 61% 29.91 in 10.0 mi NW 4.6 mph 18.4 mph N/A   Partly Cloudy
7:51 AM 35.1 °F 31.0 °F 24.1 °F 64% 29.93 in 10.0 mi NNW 4.6 mph - N/A   Clear
8:51 AM 36.0 °F 32.1 °F 24.1 °F 62% 29.96 in 10.0 mi WNW 4.6 mph - N/A   Clear
9:51 AM 37.0 °F 32.4 °F 24.1 °F 59% 29.98 in 10.0 mi NW 5.8 mph - N/A   Clear
10:51 AM 39.0 °F 35.7 °F 25.0 °F 57% 29.99 in 10.0 mi WNW 4.6 mph - N/A   Clear
11:51 AM 41.0 °F 37.1 °F 25.0 °F 53% 29.96 in 10.0 mi NW 5.8 mph - N/A   Clear
12:51 PM 42.1 °F - 24.1 °F 49% 29.92 in 10.0 mi Calm Calm - N/A   Clear
1:51 PM 43.0 °F - 25.0 °F 49% 29.89 in 10.0 mi Calm Calm - N/A   Partly Cloudy
2:51 PM 44.1 °F 38.6 °F 25.0 °F 47% 29.88 in 10.0 mi SSE 10.4 mph - N/A   Clear
3:51 PM 42.1 °F 37.7 °F 25.0 °F 51% 29.86 in 10.0 mi South 6.9 mph - N/A   Clear
4:51 PM 39.9 °F 36.7 °F 25.0 °F 55% 29.84 in 10.0 mi SE 4.6 mph - N/A   Clear
5:51 PM 37.9 °F 34.4 °F 25.0 °F 60% 29.83 in 10.0 mi SSE 4.6 mph - N/A   Clear
6:51 PM 34.0 °F - 24.1 °F 67% 29.85 in 10.0 mi Calm Calm - N/A   Partly Cloudy
7:51 PM 34.0 °F 29.8 °F 25.0 °F 70% 29.85 in 10.0 mi South 4.6 mph - N/A   Partly Cloudy
8:51 PM 34.0 °F 28.0 °F 26.1 °F 73% 29.83 in 10.0 mi South 6.9 mph - N/A   Clear
9:51 PM 33.1 °F 27.7 °F 26.1 °F 75% 29.82 in 10.0 mi SSE 5.8 mph - N/A   Partly Cloudy
10:51 PM 37.9 °F 29.2 °F 28.0 °F 68% 29.82 in 10.0 mi SW 15.0 mph 21.9 mph 0.00 in Rain Light Rain
11:51 PM 37.0 °F 29.8 °F 28.0 °F 70% 29.84 in 10.0 mi West 10.4 mph 19.6 mph 0.00 in   Overcast